Home   Weather   Fairfield   Past weeks
Flag for Australia

Past Weather in Fairfield, Victoria, Australia — Yesterday and Last 2 Weeks

Now
86 °F

Sunny.


Feels Like: 83 °F
Forecast: 92 / 58 °F
Wind: 23 mph from North

Location: Melbourne Airport

Current Time: Dec 9, 2019 at 10:35:21 am

Latest Report: Dec 9, 2019 at 10:00 am


Visibility: 10 mi

Pressure: 29.95 "Hg

Humidity: 17%

Dew Point: 36 °F

Location of FairfieldLocation

Past Weather in Fairfield — Graph

°F

Fairfield Temperature Yesterday

Maximum temperature yesterday: 79 °F (at 5:00 pm)
Minimum temperature yesterday: 55 °F (at 12:00 am)
Average temperature yesterday: 65 °F

High & Low Weather Summary for the Past Weeks

 TemperatureHumidityPressure
High84 °F (Nov 25, 11:30 am)100% (Nov 26, 6:00 am)30.12 "Hg (Nov 26, 6:00 am)
Low41 °F (Nov 27, 4:30 am)10% (Nov 25, 12:00 pm)29.36 "Hg (Dec 2, 1:30 am)
Average59 °F60%29.83 "Hg
* Reported Nov 24 9:00 am — Dec 9 9:00 am, Fairfield. Weather by CustomWeather, © 2019

Note: Actual official high and low records may vary slightly from our data, if they occured in-between our weather recording intervals... More about our weather records

Fairfield Weather History for the Previous 24 Hours

Scroll right to see more
 ConditionsComfort  
Time TempWeatherWind HumidityBarometerVisibility
9:00 am
Mon, Dec 9
84 °FSunny.21 mph16%29.95 "Hg10 mi
8:30 am81 °FSunny.22 mph21%29.95 "Hg10 mi
8:00 am77 °FSunny.18 mph28%29.95 "Hg10 mi
7:30 am73 °FSunny.18 mph33%29.92 "Hg10 mi
7:00 am72 °FSunny.21 mph38%29.92 "Hg10 mi
6:30 am68 °FSunny.18 mph40%29.92 "Hg10 mi
6:00 am70 °FSunny.18 mph38%29.92 "Hg10 mi
5:30 am68 °FClear.16 mph43%29.92 "Hg10 mi
5:00 am66 °FClear.15 mph49%29.92 "Hg10 mi
4:30 am66 °FClear.15 mph49%29.92 "Hg10 mi
4:00 am64 °FClear.14 mph56%29.92 "Hg10 mi
3:30 am59 °FClear.10 mph72%29.95 "Hg10 mi
3:00 am61 °FClear.6 mph68%29.95 "Hg10 mi
2:30 am61 °FClear.6 mph68%29.98 "Hg10 mi
2:00 am61 °FClear.7 mph72%29.98 "Hg10 mi
1:30 am61 °FClear.9 mph72%29.98 "Hg10 mi
1:00 am61 °FClear.8 mph72%30.01 "Hg10 mi
12:30 am63 °FClear.9 mph68%30.01 "Hg10 mi
12:00 am63 °FClear.10 mph68%30.01 "Hg10 mi
11:30 pm
Sun, Dec 8
63 °FClear.7 mph73%30.01 "Hg10 mi
11:00 pm63 °FClear.6 mph73%30.04 "Hg10 mi
10:30 pm64 °FClear.6 mph68%30.04 "Hg10 mi
10:00 pm64 °FClear.6 mph68%30.04 "Hg10 mi
9:30 pm66 °FClear.6 mph68%30.04 "Hg10 mi
9:00 pm66 °FClear.7 mph64%30.04 "Hg10 mi
8:30 pm68 °FSunny.8 mph60%30.04 "Hg10 mi
8:00 pm72 °FSunny.7 mph53%30.01 "Hg10 mi
7:30 pm73 °FSunny.10 mph50%30.01 "Hg10 mi
7:00 pm75 °FSunny.10 mph44%30.01 "Hg10 mi
6:30 pm77 °FSunny.10 mph39%30.01 "Hg10 mi
6:00 pm77 °FSunny.12 mph39%30.01 "Hg10 mi
5:30 pm79 °FSunny.9 mph34%30.01 "Hg10 mi
5:00 pm79 °FSunny.10 mph37%30.01 "Hg10 mi
4:30 pm77 °FSunny.9 mph36%30.01 "Hg10 mi
4:00 pm77 °FPassing clouds.10 mph34%30.01 "HgN/A
3:00 pm75 °FPassing clouds.9 mph36%30.04 "HgN/A
2:30 pm75 °FPassing clouds.10 mph36%30.04 "HgN/A
2:00 pm75 °FPassing clouds.7 mph36%30.04 "HgN/A
1:30 pm73 °FPassing clouds.9 mph36%30.07 "HgN/A
1:00 pm72 °FPassing clouds.5 mph38%30.07 "HgN/A
12:30 pm70 °FPassing clouds.6 mph40%30.07 "HgN/A
12:00 pm70 °FPassing clouds.7 mph43%30.07 "HgN/A
11:00 am66 °FPartly sunny.8 mph49%30.09 "HgN/A
10:30 am64 °FScattered clouds.8 mph52%30.09 "HgN/A
10:00 am63 °FPassing clouds.6 mph56%30.09 "HgN/A
Weather by CustomWeather, © 2019

See weather overview

Advertising